[[{"header":{"parameterUnit":"m.s-1","parameterCategory":1,"la1":30.2991,"la2":30.254,"lo1":-89.0895,"lo2":-89.0444,"dy":0.0017,"dx":0.0017,"nx":28,"ny":28,"refTime":"2025-11-26T03:00:00:Z","depth":0,"parameterNumber":2,"parameterNumberName":"U-component_of_WINDS"},"data":[0,0,0,0,0,0,0,0,0,0,0,0,0,0,0,0,0,0,0,0,0,0,0,0,0,0,0,0,0,0,0,0,0,0,0,0,0,0,0,0,0,0,0,0,0,0,0,0,0,0,0,0,0,0,0,0,0,0,0.5044,0.5044,0,0.5031,0.5031,0.503,0.4993,0.4993,0.4992,0.4991,0.4979,0.498,0.498,0,0,0,0,0,0,0,0,0,0,0,0,0,0.504,0.504,0.5044,0.5044,0.5044,0.5031,0.5031,0.503,0.4994,0.4993,0.4992,0.4991,0.4979,0.498,0.498,0,0,0,0,0,0,0,0,0,0,0,0,0,0.5036,0.504,0.5044,0.5024,0.5022,0.5031,0.5031,0.503,0.4994,0.4993,0.4991,0.499,0.4979,0.498,0.498,0.5008,0,0,0.4982,0.4982,0,0,0,0,0,0,0,0,0.5036,0.5036,0.5027,0.5025,0.5023,0.5012,0.5024,0.5023,0.4994,0.5005,0.4991,0.499,0.4991,0.4991,0.4991,0.5008,0.5007,0.4982,0.4983,0.4983,0.4983,0,0,0,0,0,0,0,0.5036,0.5036,0.5039,0.5027,0.5025,0.5016,0.5014,0.5024,0.5005,0.5004,0.5001,0.5,0.499,0.4991,0.4991,0.5007,0.4982,0.4983,0.4983,0.4983,0.5046,0.5047,0,0,0,0,0,0,0.5039,0.5037,0.5039,0.5039,0.5027,0.5017,0.5015,0.5017,0.5005,0.5002,0.5001,0.4998,0.499,0.499,0.499,0.5022,0.4983,0.4983,0.4984,0.5045,0.5046,0.5048,0,0,0,0,0,0,0.5039,0.504,0.504,0.5037,0.5036,0.5018,0.5021,0.5018,0.5018,0.5003,0.4999,0.5005,0.4989,0.4989,0.5004,0.5021,0.4984,0.4984,0.5043,0.5045,0.5047,0.5087,0,0,0,0,0,0,0.5039,0.504,0.505,0.5037,0.5036,0.5054,0.5022,0.5018,0.5019,0.5015,0.5005,0.5003,0.4988,0.5003,0.5005,0.5022,0.4985,0.5042,0.5044,0.5046,0.5084,0.509,0.5096,0,0,0,0,0,0.5039,0.5062,0.5051,0.5051,0.5049,0.5055,0.5054,0.5037,0.5021,0.5031,0.5021,0.5003,0.5019,0.5005,0.5006,0.5024,0.504,0.5043,0.5046,0.5082,0.5089,0.5095,0,0,0,0,0,0,0.5079,0.506,0.5047,0.5067,0.5063,0.5049,0.5061,0.5045,0.5046,0.5043,0.5021,0.5019,0.5037,0.5032,0.5016,0.505,0.5027,0.503,0.5054,0.506,0.5066,0.5067,0.4985,0,0,0,0,0,0.5089,0.5095,0.5079,0.5098,0.5097,0.5079,0.5081,0.5068,0.5063,0.5061,0.5052,0.5049,0.5053,0.5056,0.5059,0.5083,0.5081,0.5096,0.5101,0.5106,0.511,0.5122,0.5129,0.5057,0.5057,0.5057,0,0,0.5112,0.5103,0.5108,0.5106,0.5101,0.5108,0.5078,0.5087,0.5092,0.5063,0.5076,0.5069,0.5064,0.5083,0.5092,0.508,0.5129,0.511,0.5114,0.5114,0.5126,0.5133,0.5139,0.5059,0.5059,0.5058,0,0,0.5158,0.5151,0.5166,0.5162,0.5154,0.5142,0.5146,0.5134,0.5129,0.5141,0.5119,0.5125,0.5133,0.513,0.513,0.5173,0.5157,0.5175,0.5204,0.5217,0.5223,0.5228,0.5244,0.525,0.5178,0.5178,0.5178,0,0.5188,0.5197,0.5176,0.5186,0.5186,0.5159,0.5174,0.5171,0.5166,0.5166,0.5152,0.5161,0.5156,0.5174,0.5185,0.5185,0.5189,0.5176,0.5223,0.5228,0.5233,0.5248,0.5254,0.518,0.518,0.518,0.518,0,0.5234,0.5241,0.5254,0.5249,0.525,0.5263,0.5245,0.5248,0.5235,0.5225,0.5238,0.523,0.5231,0.5234,0.5221,0.5251,0.5244,0.5227,0.5203,0.5242,0.5256,0.5262,0.5184,0.5183,0.5182,0.5182,0,0,0.5305,0.5287,0.5293,0.529,0.5279,0.5285,0.5296,0.5297,0.5301,0.5297,0.5307,0.5314,0.5298,0.5297,0.5284,0.5295,0.5331,0.5276,0.5276,0.5288,0.5364,0.5378,0.5385,0.5319,0.532,0.5321,0.5365,0,0.5349,0.5367,0.5349,0.5372,0.5378,0.5351,0.5362,0.5357,0.5347,0.5352,0.5341,0.5347,0.5325,0.5325,0.5334,0.5324,0.5346,0.5321,0.5329,0.533,0.5332,0.5392,0.5406,0.5448,0.537,0.5371,0.5372,0,0.5402,0.5401,0.5424,0.5412,0.5414,0.5424,0.5422,0.5426,0.542,0.5413,0.5412,0.5395,0.5406,0.5382,0.5397,0.538,0.5382,0.5378,0.5379,0.538,0.5354,0.5396,0.5461,0.5468,0.538,0.5379,0.5379,0,0.5453,0.5457,0.5471,0.547,0.5456,0.5463,0.5458,0.545,0.5451,0.545,0.5451,0.5452,0.5452,0.5453,0.5437,0.5421,0.5455,0.5429,0.545,0.545,0.5459,0.5459,0.5527,0.5459,0.5459,0.5459,0.5458,0,0.5504,0.552,0.5494,0.5503,0.5519,0.5498,0.5515,0.5507,0.5501,0.5508,0.5485,0.5492,0.547,0.5475,0.5463,0.5478,0.5478,0.5473,0.547,0.5476,0.5476,0.5478,0.5475,0.546,0.546,0.546,0.5459,0,0.5565,0.5548,0.5562,0.5547,0.5543,0.5556,0.5544,0.5552,0.5541,0.555,0.5551,0.5534,0.5539,0.5522,0.5525,0.5516,0.5539,0.553,0.5541,0.5539,0.5561,0.5559,0.5633,0.5642,0.5567,0.5568,0.5568,0,0.5599,0.561,0.5596,0.5599,0.5595,0.56,0.5601,0.558,0.5582,0.5576,0.5585,0.5588,0.5589,0.5598,0.5586,0.5588,0.558,0.5606,0.558,0.5586,0.5582,0.5582,0.5583,0.5611,0.5612,0.5613,0.5614,0,0.5662,0.5653,0.5655,0.5654,0.5656,0.5654,0.5651,0.5655,0.5633,0.5637,0.5641,0.5642,0.5644,0.5648,0.5647,0.5642,0.5625,0.5621,0.5626,0.5633,0.564,0.5637,0.5557,0.562,0.5619,0.5619,0.5619,0.5618,0.5711,0.572,0.5711,0.5714,0.571,0.5707,0.5714,0.5703,0.5706,0.5706,0.5694,0.5701,0.5694,0.5691,0.5688,0.5694,0.5682,0.5689,0.5691,0.5693,0.5698,0.5638,0.5693,0.5693,0.5693,0.5693,0.5693,0,0.5774,0.5767,0.577,0.5766,0.5769,0.575,0.5746,0.575,0.5756,0.5751,0.5753,0.5758,0.5761,0.5749,0.5751,0.5758,0.575,0.5759,0.5759,0.5758,0.5707,0.5703,0.5765,0.5765,0.5765,0.5765,0.5765,0.5765,0.5807,0.5821,0.5811,0.5822,0.5815,0.5822,0.5821,0.5819,0.5814,0.5821,0.5823,0.5815,0.5807,0.5808,0.5811,0.5807,0.5809,0.5821,0.5815,0.5768,0.5761,0.5755,0.5751,0.5822,0.5822,0.5865,0.5865,0.5866]},{"header":{"parameterUnit":"m.s-1","parameterCategory":1,"la1":30.2991,"la2":30.254,"lo1":-89.0895,"lo2":-89.0444,"dy":0.0017,"dx":0.0017,"nx":28,"ny":28,"refTime":"2025-11-26T03:00:00:Z","depth":0,"parameterNumber":3,"parameterNumberName":"V-component_of_WINDS"},"data":[0,0,0,0,0,0,0,0,0,0,0,0,0,0,0,0,0,0,0,0,0,0,0,0,0,0,0,0,0,0,0,0,0,0,0,0,0,0,0,0,0,0,0,0,0,0,0,0,0,0,0,0,0,0,0,0,0,0,1.9655,1.9657,0,1.9841,1.9844,1.9846,1.9872,1.987,1.9868,1.9867,2.0058,2.0064,2.0071,0,0,0,0,0,0,0,0,0,0,0,0,0,1.932,1.9326,1.9655,1.9657,1.9659,1.9841,1.9844,1.9846,1.9872,1.987,1.9868,1.9866,2.0055,2.0063,2.0071,0,0,0,0,0,0,0,0,0,0,0,0,0,1.9482,1.9328,1.9654,1.9694,1.97,1.9841,1.9844,1.9847,1.9873,1.987,1.9867,1.9865,2.0053,2.0062,2.0072,2.0186,0,0,2.0103,2.0107,0,0,0,0,0,0,0,0,1.9473,1.9494,1.9686,1.9692,1.9698,1.9831,1.9796,1.9961,1.9873,1.9807,1.9867,1.9864,1.9984,2.0,2.004,2.0195,2.0203,2.0104,2.011,2.0114,2.0117,0,0,0,0,0,0,0,1.9461,1.9486,1.9729,1.9689,1.9696,1.9703,1.9723,1.9827,1.9908,1.9813,1.9815,1.9837,1.9987,2.0031,2.0045,2.0206,2.0104,2.0113,2.0119,2.0123,2.0464,2.0467,0,0,0,0,0,0,1.9443,1.9477,1.9723,1.9734,1.9577,1.9711,1.9733,1.9791,1.9907,1.9922,1.9839,1.9837,2.0015,2.0033,2.0052,2.0194,2.0114,2.0124,2.0129,2.0461,2.0465,2.0468,0,0,0,0,0,0,1.9436,1.9465,1.9715,1.9606,1.9639,1.9719,1.9784,1.9796,1.984,1.9927,1.9941,1.9869,2.0013,2.0038,2.0153,2.0201,2.0128,2.0137,2.0457,2.0462,2.0466,2.0478,0,0,0,0,0,0,1.9426,1.9462,1.9506,1.9607,1.9644,1.9813,1.9787,1.9801,1.9857,1.9857,1.9958,1.9973,2.0013,2.0138,2.0163,2.0213,2.0145,2.0453,2.0459,2.0465,2.0474,2.0482,2.049,0,0,0,0,0,1.9414,1.9502,1.9509,1.9538,1.9702,1.9816,1.9837,1.9882,1.9861,1.9906,1.9962,1.997,2.0191,2.0149,2.0178,2.0232,2.0451,2.0458,2.0464,2.047,2.0481,2.0489,0,0,0,0,0,0,1.9405,1.9516,1.9525,1.9648,1.9722,1.982,1.9879,1.9892,1.9974,1.9971,2.0022,2.0045,2.0158,2.0206,2.0158,2.0348,2.0319,2.0332,2.0313,2.0324,2.0332,2.0319,2.0153,0,0,0,0,0,1.9417,1.9501,1.9593,1.9693,1.973,1.9798,1.9849,1.9877,1.9957,1.9989,2.0053,2.0129,2.0216,2.0272,2.0357,2.048,2.0503,2.0531,2.0539,2.0545,2.0556,2.0626,2.064,2.049,2.049,2.049,0,0,1.9444,1.9515,1.9565,1.9693,1.9754,1.984,1.9824,1.9916,1.998,2.0002,2.0116,2.0165,2.0253,2.0373,2.0429,2.0417,2.0602,2.0554,2.0558,2.0566,2.0634,2.0648,2.0661,2.0495,2.0494,2.0494,0,0,1.9536,1.9598,1.9689,1.975,1.9843,1.9887,1.9908,2.0004,2.0038,2.0152,2.0171,2.0247,2.0396,2.0459,2.051,2.0625,2.0636,2.065,2.0693,2.076,2.0772,2.0783,2.0825,2.084,2.0661,2.0661,2.0661,0,1.9558,1.9689,1.9733,1.9825,1.9881,1.9904,1.9996,2.0053,2.0169,2.0207,2.0191,2.0378,2.0439,2.0574,2.0602,2.0642,2.0669,2.064,2.0767,2.0778,2.0789,2.083,2.0846,2.0662,2.0662,2.0662,2.0662,0,1.9711,1.9801,1.9862,1.9974,2.0036,2.0127,2.0186,2.0244,2.0266,2.0311,2.0427,2.0501,2.0602,2.0635,2.0657,2.0773,2.0763,2.0756,2.0728,2.0804,2.0843,2.0859,2.0664,2.0664,2.0663,2.0663,0,0,1.9805,1.9939,1.9962,2.0013,2.0116,2.0186,2.0277,2.0376,2.0425,2.0503,2.0582,2.0706,2.07,2.0758,2.0787,2.0846,2.0934,2.0832,2.0835,2.085,2.1068,2.1074,2.1092,2.094,2.0943,2.0946,2.1061,0,1.9912,2.0077,2.0119,2.026,2.0344,2.0366,2.0446,2.0518,2.0562,2.064,2.0689,2.0777,2.0762,2.0797,2.0856,2.0911,2.0978,2.0902,2.1015,2.1019,2.0995,2.1112,2.1119,2.1224,2.1077,2.1079,2.1081,0,2.0058,2.014,2.0289,2.0381,2.0418,2.0489,2.0583,2.0656,2.0738,2.0766,2.083,2.0854,2.095,2.0914,2.1048,2.0995,2.1043,2.1077,2.1082,2.1096,2.1056,2.1132,2.1259,2.1276,2.1106,2.1104,2.1102,0,2.0115,2.0261,2.037,2.0412,2.0522,2.0572,2.062,2.0699,2.0755,2.0836,2.0873,2.0964,2.1014,2.1084,2.1131,2.1101,2.1261,2.123,2.1289,2.1288,2.1324,2.1321,2.1463,2.135,2.135,2.135,2.1349,0,2.023,2.0321,2.0397,2.0464,2.0566,2.0613,2.0712,2.0761,2.0831,2.0907,2.0931,2.1002,2.1059,2.1138,2.1175,2.1281,2.1303,2.1329,2.1338,2.1329,2.1326,2.1363,2.1358,2.1354,2.1353,2.1352,2.1352,0,2.0312,2.0366,2.0486,2.058,2.0606,2.0677,2.0757,2.0823,2.0867,2.0964,2.0989,2.1059,2.1154,2.1207,2.1325,2.135,2.1468,2.1473,2.1441,2.1446,2.1502,2.1497,2.1675,2.1702,2.1569,2.157,2.1571,0,2.0383,2.0454,2.0555,2.0609,2.0658,2.0743,2.08,2.0848,2.0907,2.1005,2.1059,2.1154,2.1234,2.1383,2.1445,2.1535,2.1543,2.1599,2.1557,2.1545,2.1547,2.1543,2.1551,2.1607,2.1609,2.1609,2.161,0,2.0505,2.0528,2.0611,2.0703,2.0771,2.0845,2.0919,2.0961,2.1021,2.1086,2.1183,2.1244,2.1365,2.146,2.1555,2.1604,2.1618,2.1622,2.1641,2.1634,2.1613,2.1627,2.1464,2.1619,2.1618,2.1617,2.1617,2.1617,2.0586,2.065,2.0732,2.0822,2.0883,2.0951,2.1018,2.107,2.1152,2.1254,2.1277,2.1379,2.1458,2.1588,2.1639,2.172,2.171,2.1737,2.1744,2.1751,2.1754,2.1598,2.1737,2.1737,2.1737,2.1737,2.1736,0,2.0711,2.0764,2.0847,2.095,2.1021,2.1027,2.1108,2.1168,2.1258,2.133,2.1408,2.1519,2.1611,2.1679,2.1773,2.1824,2.1833,2.1847,2.1845,2.1857,2.1756,2.1732,2.1839,2.1839,2.1839,2.1839,2.1839,2.1839,2.0785,2.0894,2.0926,2.1065,2.1118,2.1219,2.1265,2.1328,2.1386,2.151,2.1586,2.1629,2.1701,2.18,2.1884,2.1902,2.1936,2.195,2.1969,2.1875,2.1864,2.1853,2.1831,2.1957,2.1957,2.2063,2.2064,2.2065]}]]